Weslaco, TX

9:33 AM CDT on April 28, 2017 (GMT -0500)
Weslaco

Weather History for KT65 - August, 2014

Change the Weather History Date:

Wednesday, August 13, 2014

  Actual Average (KMFE) Record (KMFE)
Temperature  
Mean Temperature 86 °F -  
Max Temperature 100 °F 97 °F 106 °F (2015)
Min Temperature 73 °F 75 °F 64 °F (1967)
Cooling Degree Days 22    
Growing Degree Days 36 (Base 50)    
Moisture  
Dew Point 71 °F    
Average Humidity 66    
Maximum Humidity 90    
Minimum Humidity 31    
Precipitation  
Precipitation 0.43 in - - ()
Sea Level Pressure  
Sea Level Pressure 29.99 in    
Wind  
Wind Speed 3 mph (SSE)    
Max Wind Speed 17 mph    
Max Gust Speed 38 mph    
Visibility 8 miles    
Events Rain , Thunderstorm    
Averages and records for this station are not official NWS values.
T = Trace of Precipitation, MM = Missing Value Source: NWS Daily Summary

Daily Weather History Graph

Daily Weather History Graph

Search for Another Location

Airport or City:

Trip Planner

Search our weather history database for the weather conditions in past years. The results will help you decide how hot, cold, wet, or windy it might be!

Date:

Astronomy

Aug. 13, 2014 Rise Set
Actual Time 7:03 AM CDT 8:09 PM CDT
Civil Twilight 6:39 AM CDT 8:33 PM CDT
Nautical Twilight 6:10 AM CDT 9:02 PM CDT
Astronomical Twilight 5:40 AM CDT 9:31 PM CDT
Moon 10:23 PM CDT (8/13) 10:08 AM CDT (8/13)
Length of Visible Light 13h 54m
Length of Day
13h 06m
Waning Gibbous, 87% of the Moon is Illuminated
Aug 13
Waning Gibbous
Aug 17
Last Quarter
Aug 25
New
Sep 2
First Quarter
Sep 8
Full

Hourly Weather History & Observations

Time (CDT) Temp. Heat Index Dew Point Humidity Pressure Visibility Wind Dir Wind Speed Gust Speed Precip Events Conditions
12:15 AM 81.5 °F 86.9 °F 73.6 °F 77% 30.02 in 10.0 mi WSW 3.5 mph - N/A   Scattered Clouds
12:35 AM 81.9 °F 88.0 °F 74.3 °F 78% 30.01 in 10.0 mi SW 3.5 mph - N/A   Mostly Cloudy
12:55 AM 81.3 °F 86.8 °F 73.8 °F 78% 30.01 in 10.0 mi WSW 4.6 mph - N/A   Scattered Clouds
1:15 AM 81.9 °F 87.5 °F 73.8 °F 76% 30.01 in 10.0 mi WSW 3.5 mph - N/A   Mostly Cloudy
1:35 AM 81.5 °F 86.9 °F 73.6 °F 77% 30.00 in 10.0 mi Calm Calm - N/A   Scattered Clouds
1:55 AM 80.6 °F 85.4 °F 73.4 °F 79% 29.99 in 10.0 mi South 4.6 mph - N/A   Clear
2:15 AM 80.6 °F 85.4 °F 73.4 °F 79% 29.99 in 10.0 mi Calm Calm - N/A   Clear
2:35 AM 80.2 °F 84.7 °F 73.6 °F 80% 29.98 in 10.0 mi SSW 3.5 mph - N/A   Clear
2:55 AM 80.6 °F 85.4 °F 73.4 °F 79% 29.99 in 7.0 mi Calm Calm - N/A   Clear
3:15 AM 80.2 °F 84.7 °F 73.4 °F 80% 29.99 in 7.0 mi Calm Calm - N/A   Clear
3:35 AM 80.2 °F 84.7 °F 73.4 °F 80% 29.98 in 7.0 mi Calm Calm - N/A   Clear
3:55 AM 79.5 °F - 73.2 °F 81% 29.98 in 7.0 mi Calm Calm - N/A   Scattered Clouds
4:15 AM 79.0 °F - 73.2 °F 82% 29.98 in 7.0 mi Calm Calm - N/A   Scattered Clouds
4:35 AM 79.0 °F - 73.2 °F 82% 29.98 in 7.0 mi Calm Calm - N/A   Scattered Clouds
4:55 AM 77.9 °F - 73.0 °F 85% 29.98 in 7.0 mi Calm Calm - N/A   Clear
5:15 AM 77.9 °F - 72.5 °F 83% 29.98 in 7.0 mi Calm Calm - N/A   Clear
5:35 AM 77.4 °F - 72.7 °F 85% 29.98 in 10.0 mi Calm Calm - N/A   Clear
6:15 AM 76.6 °F - 72.7 °F 87% 29.99 in 7.0 mi Calm Calm - N/A   Clear
6:35 AM 76.5 °F - 72.7 °F 88% 29.99 in 10.0 mi Calm Calm - N/A   Clear
6:55 AM 77.7 °F - 73.4 °F 86% 29.99 in 7.0 mi Calm Calm - N/A   Clear
7:55 AM 78.8 °F - 73.9 °F 85% 30.01 in 7.0 mi Calm Calm - N/A   Clear
8:15 AM 80.6 °F 85.7 °F 74.1 °F 81% 30.01 in 7.0 mi East 3.5 mph - N/A   Clear
8:55 AM 83.7 °F 91.3 °F 74.8 °F 75% 30.02 in 7.0 mi SE 3.5 mph - N/A   Clear
9:35 AM 86.4 °F 93.4 °F 72.9 °F 64% 30.02 in 7.0 mi Calm Calm - N/A   Clear
9:55 AM 88.2 °F 95.0 °F 72.0 °F 59% 30.02 in 10.0 mi Calm Calm - N/A   Clear
10:15 AM 89.1 °F 94.6 °F 70.3 °F 54% 30.02 in 10.0 mi Calm Calm - N/A   Clear
10:35 AM 89.6 °F 94.7 °F 69.8 °F 52% 30.02 in 7.0 mi Calm Calm - N/A   Clear
10:55 AM 90.3 °F 94.7 °F 68.9 °F 49% 30.02 in 10.0 mi Calm Calm - N/A   Clear
11:15 AM 91.0 °F 95.2 °F 68.4 °F 47% 30.02 in 7.0 mi Calm Calm - N/A   Clear
11:35 AM 91.9 °F 95.9 °F 68.0 °F 45% 30.02 in 10.0 mi Calm Calm - N/A   Clear
11:55 AM 92.8 °F 97.1 °F 68.0 °F 44% 30.02 in 10.0 mi West 3.5 mph - N/A   Scattered Clouds
12:15 PM 95.4 °F 99.1 °F 67.1 °F 39% 30.01 in 7.0 mi ENE 6.9 mph - N/A   Scattered Clouds
12:35 PM 94.5 °F 98.0 °F 66.4 °F 40% 30.01 in 10.0 mi SSW 3.5 mph - N/A   Scattered Clouds
12:55 PM 92.5 °F 95.0 °F 65.8 °F 41% 30.01 in 10.0 mi Calm Calm - N/A Thunderstorm Mostly Cloudy
1:15 PM 96.3 °F 99.7 °F 65.8 °F 37% 30.00 in 7.0 mi Calm Calm - N/A   Mostly Cloudy
1:35 PM 96.4 °F 99.4 °F 65.5 °F 36% 29.99 in 7.0 mi SE 4.6 mph - N/A   Mostly Cloudy
1:55 PM 98.2 °F 101.0 °F 64.8 °F 33% 29.98 in 10.0 mi NE 3.5 mph - N/A   Scattered Clouds
2:15 PM 98.1 °F 100.7 °F 64.4 °F 33% 29.97 in 7.0 mi Calm Calm - N/A   Clear
2:35 PM 99.0 °F 101.7 °F 64.2 °F 32% 29.96 in 10.0 mi ESE 3.5 mph - N/A   Clear
2:55 PM 100.2 °F 103.3 °F 64.8 °F 31% 29.95 in 7.0 mi Calm Calm - N/A   Scattered Clouds
3:10 PM 97.0 °F 98.8 °F 63.5 °F 33% 29.95 in 10.0 mi East 5.8 mph - N/A   Scattered Clouds
3:35 PM 97.9 °F 102.1 °F 66.6 °F 36% 29.95 in 7.0 mi SE 12.7 mph 20.7 mph N/A   Scattered Clouds
3:55 PM 93.0 °F 97.9 °F 68.7 °F 45% 29.98 in 4.0 mi ESE 13.8 mph 25.3 mph N/A Thunderstorm Unknown
4:15 PM 73.2 °F - 68.7 °F 86% 30.00 in 1.5 mi NE 17.3 mph 38.0 mph 0.30 in Rain , Thunderstorm Heavy Thunderstorms and Rain
4:35 PM 75.9 °F - 71.2 °F 85% 29.98 in 4.0 mi West 4.6 mph - 0.43 in Rain , Thunderstorm Thunderstorms and Rain
5:15 PM 77.9 °F - 74.8 °F 90% 29.94 in 7.0 mi South 4.6 mph - N/A   Scattered Clouds
5:35 PM 80.8 °F 86.5 °F 75.2 °F 83% 29.94 in 7.0 mi SE 4.6 mph - N/A   Clear
5:55 PM 82.4 °F 89.2 °F 75.0 °F 78% 29.93 in 10.0 mi SE 5.8 mph - N/A   Light Drizzle
6:15 PM 86.4 °F 95.1 °F 74.5 °F 68% 29.93 in 7.0 mi SSE 8.1 mph - N/A   Clear
6:35 PM 87.6 °F 96.2 °F 73.9 °F 64% 29.93 in 7.0 mi SE 9.2 mph - N/A   Clear
11:15 PM 81.5 °F 87.6 °F 74.7 °F 80% 30.00 in 7.0 mi SSE 5.8 mph - N/A   Clear
11:55 PM 80.6 °F 85.7 °F 74.3 °F 81% 29.99 in 10.0 mi South 8.1 mph - N/A   Clear